Baton Rouge, LA

2:49 AM CST on January 18, 2018 (GMT -0600)
Baton Rouge Metro-Ryan

Weather History for KBTR - April, 2013

Change the Weather History Date:

Friday, April 19, 2013

  Actual Average Record
Temperature  
Mean Temperature 53 °F 69 °F  
Max Temperature 62 °F 80 °F 90 °F (2006)
Min Temperature 44 °F 58 °F 40 °F (2001)
Degree Days  
Heating Degree Days 12 1  
Month to date heating degree days 53 43  
Since 1 July heating degree days 1501 1545  
Cooling Degree Days 0 5  
Month to date cooling degree days 77 75  
Year to date cooling degree days 121 164  
Growing Degree Days 3 (Base 50)    
Moisture  
Dew Point 44 °F    
Average Humidity 67    
Maximum Humidity 93    
Minimum Humidity 40    
Precipitation  
Precipitation 0.01 in 0.15 in 1.73 in (1914)
Month to date precipitation 4.30 2.92  
Year to date precipitation 29.25 18.09  
Snow  
Snow 0.00 in - - ()
Month to date snowfall 0.0  
Since 1 July snowfall 0.0  
Snow Depth 0.00 in    
Sea Level Pressure  
Sea Level Pressure 30.06 in    
Wind  
Wind Speed 6 mph (NNW)    
Max Wind Speed 16 mph    
Max Gust Speed 23 mph    
Visibility 10 miles    
Events Rain    
T = Trace of Precipitation, MM = Missing Value Source: NWS Daily Summary

Daily Weather History Graph

Daily Weather History Graph

Search for Another Location

Airport or City:

Trip Planner

Search our weather history database for the weather conditions in past years. The results will help you decide how hot, cold, wet, or windy it might be!

Date:

Astronomy

Apr. 19, 2013 Rise Set
Actual Time 6:32 AM CDT 7:35 PM CDT
Civil Twilight 6:07 AM CDT 8:00 PM CDT
Nautical Twilight 5:38 AM CDT 8:29 PM CDT
Astronomical Twilight 5:07 AM CDT 8:59 PM CDT
Moon 1:44 PM CDT (4/19) 2:22 AM CDT (4/19)
Length of Visible Light 13h 52m
Length of Day
13h 02m
First Quarter, 62% of the Moon is Illuminated
Apr 19
First Quarter
Apr 25
Full
May 2
Last Quarter
May 9
New
May 17
First Quarter

Hourly Weather History & Observations

Time (CDT) Temp. Windchill Dew Point Humidity Pressure Visibility Wind Dir Wind Speed Gust Speed Precip Events Conditions
12:14 AM 55.4 °F - 55.4 °F 100% 29.92 in 10.0 mi NW 11.5 mph 18.4 mph 0.01 in Rain Light Rain
12:53 AM 55.0 °F - 53.1 °F 93% 29.93 in 8.0 mi NNW 8.1 mph 18.4 mph 0.02 in Rain Rain
1:13 AM 53.6 °F - 53.6 °F 100% 29.93 in 10.0 mi WNW 9.2 mph 16.1 mph 0.01 in Rain Light Rain
1:27 AM 53.6 °F - 51.8 °F 94% 29.94 in 10.0 mi NW 12.7 mph 24.2 mph 0.01 in Rain Light Rain
1:35 AM 53.6 °F - 51.8 °F 94% 29.94 in 10.0 mi NNW 8.1 mph 23.0 mph 0.01 in Rain Light Rain
1:50 AM 53.6 °F - 51.8 °F 94% 29.95 in 10.0 mi NW 8.1 mph - 0.01 in Rain Light Rain
1:53 AM 53.1 °F - 52.0 °F 96% 29.95 in 10.0 mi Variable 6.9 mph - 0.01 in Rain Light Rain
2:03 AM 53.6 °F - 51.8 °F 94% 29.96 in 10.0 mi NNW 9.2 mph - 0.01 in Rain Light Rain
2:23 AM 51.8 °F - 50.0 °F 94% 29.95 in 10.0 mi NNW 11.5 mph 18.4 mph 0.01 in Rain Light Rain
2:43 AM 51.8 °F - 50.0 °F 94% 29.95 in 10.0 mi NNW 10.4 mph 17.3 mph 0.01 in   Overcast
2:53 AM 51.1 °F - 48.9 °F 92% 29.95 in 10.0 mi North 9.2 mph 19.6 mph 0.01 in   Overcast
3:53 AM 51.1 °F - 48.9 °F 92% 29.99 in 10.0 mi NW 11.5 mph 19.6 mph N/A   Overcast
4:43 AM 50.0 °F - 46.4 °F 87% 30.01 in 10.0 mi NW 8.1 mph - 0.00 in   Overcast
4:53 AM 50.0 °F - 46.0 °F 86% 30.01 in 10.0 mi NW 12.7 mph 19.6 mph 0.00 in   Overcast
5:53 AM 48.9 °F - 44.1 °F 83% 30.01 in 10.0 mi NNW 10.4 mph 18.4 mph N/A   Overcast
6:53 AM 48.0 °F - 42.1 °F 80% 30.06 in 10.0 mi NW 9.2 mph - N/A   Mostly Cloudy
7:53 AM 46.9 °F - 41.0 °F 80% 30.12 in 10.0 mi NNW 6.9 mph - N/A   Mostly Cloudy
8:14 AM 46.4 °F 42.9 °F 39.2 °F 76% 30.14 in 10.0 mi NW 6.9 mph 17.3 mph N/A   Scattered Clouds
8:53 AM 48.0 °F - 39.0 °F 71% 30.14 in 10.0 mi NNW 8.1 mph - N/A   Clear
9:53 AM 48.9 °F - 37.9 °F 66% 30.15 in 10.0 mi Variable 5.8 mph - N/A   Clear
10:53 AM 50.0 °F - 37.9 °F 63% 30.16 in 10.0 mi NNW 6.9 mph - N/A   Clear
11:53 AM 52.0 °F - 37.0 °F 57% 30.15 in 10.0 mi Variable 6.9 mph - N/A   Clear
12:53 PM 55.9 °F - 39.9 °F 55% 30.13 in 10.0 mi NNW 8.1 mph - N/A   Clear
1:53 PM 57.9 °F - 37.0 °F 46% 30.09 in 10.0 mi NNW 10.4 mph 17.3 mph N/A   Clear
2:53 PM 60.1 °F - 37.9 °F 44% 30.11 in 10.0 mi NNW 10.4 mph - N/A   Clear
3:53 PM 60.1 °F - 37.0 °F 42% 30.10 in 10.0 mi WNW 10.4 mph 18.4 mph N/A   Clear
4:53 PM 59.0 °F - 36.0 °F 42% 30.08 in 10.0 mi North 8.1 mph 17.3 mph N/A   Clear
5:53 PM 59.0 °F - 36.0 °F 42% 30.11 in 10.0 mi NNW 8.1 mph 16.1 mph N/A   Clear
6:53 PM 57.9 °F - 37.0 °F 46% 30.12 in 10.0 mi NNE 3.5 mph - N/A   Clear
7:53 PM 54.0 °F - 39.9 °F 59% 30.13 in 10.0 mi Calm Calm - N/A   Clear
8:53 PM 48.9 °F - 44.1 °F 83% 30.15 in 10.0 mi Calm Calm - N/A   Clear
9:53 PM 48.0 °F - 44.1 °F 86% 30.17 in 10.0 mi Calm Calm - N/A   Clear
10:53 PM 46.9 °F - 44.1 °F 90% 30.19 in 10.0 mi Calm Calm - N/A   Clear
11:53 PM 46.0 °F - 43.0 °F 89% 30.20 in 10.0 mi Calm Calm - N/A   Clear